AUA4HJ LSZH-EDDM

Flight info

Callsign AUA4HJ
Flight time 0h 40m
Altitude 22000
Route DEGES5L DEGES Z6 NUNRI/N0421F210 T103 BETOS BETOS1B
Aircraft A359/H-SDE2E3GHIJ3J4J5LM1ORWXY/LB1D1

Departure

Time 2026-05-05 19:55
Airport Zürich Airport (LSZH)

Arrival

Time 2026-05-05 20:35
Airport Munich Airport (EDDM)
Time Latitude Longitude Altitude Speed Heading
2026-05-05 19:22 47.46060 8.55356 1403 ft 0 kts
2026-05-05 19:45 47.46048 8.55354 1410 ft 2 kts
2026-05-05 19:46 47.46032 8.55350 1405 ft 2 kts 13°
2026-05-05 19:46 47.46016 8.55343 1407 ft 2 kts 20°
2026-05-05 19:46 47.46001 8.55333 1408 ft 2 kts 33°
2026-05-05 19:46 47.45988 8.55318 1411 ft 2 kts 55°
2026-05-05 19:47 47.45982 8.55296 1410 ft 2 kts 84°
2026-05-05 19:47 47.45982 8.55280 1410 ft 0 kts 95°
2026-05-05 19:47 47.45982 8.55279 1410 ft 0 kts 96°
2026-05-05 19:51 47.45981 8.55289 1410 ft 3 kts 96°
2026-05-05 19:51 47.45974 8.55377 1408 ft 11 kts 97°
2026-05-05 19:51 47.45964 8.55505 1410 ft 14 kts 96°
2026-05-05 19:52 47.45952 8.55660 1404 ft 16 kts 96°
2026-05-05 19:52 47.45942 8.55817 1406 ft 14 kts 95°
2026-05-05 19:52 47.45931 8.55965 1414 ft 15 kts 96°
2026-05-05 19:52 47.45921 8.56110 1416 ft 12 kts 96°
2026-05-05 19:53 47.45913 8.56222 1412 ft 11 kts 93°
2026-05-05 19:53 47.45959 8.56311 1415 ft 13 kts 19°
2026-05-05 19:53 47.46058 8.56335 1414 ft 15 kts
2026-05-05 19:53 47.46154 8.56356 1411 ft 7 kts
2026-05-05 19:54 47.46206 8.56342 1413 ft 9 kts 317°
2026-05-05 19:54 47.46258 8.56269 1412 ft 12 kts 318°
2026-05-05 19:54 47.46363 8.56129 1410 ft 38 kts 317°
2026-05-05 19:54 47.46741 8.55610 1413 ft 111 kts 317°
2026-05-05 19:55 47.47473 8.54606 1423 ft 172 kts 316°
2026-05-05 19:55 47.48379 8.53413 2180 ft 173 kts 320°
2026-05-05 19:55 47.49374 8.52445 3000 ft 182 kts 328°
2026-05-05 19:55 47.50529 8.51369 3380 ft 207 kts 317°
2026-05-05 19:56 47.51408 8.49654 4056 ft 210 kts 291°
2026-05-05 19:56 47.51802 8.47595 4696 ft 206 kts 275°
2026-05-05 19:56 47.51860 8.45490 4958 ft 205 kts 263°
2026-05-05 19:56 47.51456 8.43495 5016 ft 203 kts 240°
2026-05-05 19:57 47.50471 8.41992 5473 ft 209 kts 215°
2026-05-05 19:57 47.49583 8.41431 6055 ft 214 kts 200°
2026-05-05 19:57 47.47578 8.41663 6781 ft 226 kts 162°
2026-05-05 19:57 47.46321 8.43080 6965 ft 238 kts 133°
2026-05-05 19:58 47.45654 8.45428 7008 ft 270 kts 102°
2026-05-05 19:58 47.45560 8.48335 7025 ft 292 kts 92°
2026-05-05 19:58 47.45606 8.51375 7521 ft 299 kts 91°
2026-05-05 19:58 47.45642 8.54442 8665 ft 297 kts 92°
2026-05-05 19:59 47.45633 8.57486 9884 ft 295 kts 97°
2026-05-05 19:59 47.45465 8.60565 10668 ft 310 kts 99°
2026-05-05 19:59 47.45247 8.63861 11132 ft 334 kts 99°
2026-05-05 19:59 47.45004 8.67398 11616 ft 356 kts 99°
2026-05-05 20:00 47.44749 8.71100 12382 ft 367 kts 99°
2026-05-05 20:00 47.44488 8.74893 13288 ft 374 kts 99°
2026-05-05 20:00 47.44218 8.78760 14111 ft 380 kts 98°
2026-05-05 20:00 47.43949 8.82609 15002 ft 382 kts 98°
2026-05-05 20:01 47.43673 8.86525 15907 ft 385 kts 98°
2026-05-05 20:01 47.43393 8.90472 16765 ft 388 kts 98°
2026-05-05 20:01 47.43107 8.94462 17636 ft 392 kts 98°
2026-05-05 20:01 47.42818 8.98483 18489 ft 396 kts 99°
2026-05-05 20:02 47.42524 9.02554 19257 ft 401 kts 99°
2026-05-05 20:02 47.42225 9.06668 20009 ft 406 kts 99°
2026-05-05 20:02 47.41920 9.10836 20594 ft 410 kts 99°
2026-05-05 20:02 47.41616 9.15032 20859 ft 413 kts 98°
2026-05-05 20:03 47.41623 9.19302 20890 ft 419 kts 84°
2026-05-05 20:03 47.42445 9.23468 20899 ft 426 kts 70°
2026-05-05 20:03 47.43723 9.27449 20898 ft 428 kts 63°
2026-05-05 20:03 47.45176 9.31229 20896 ft 428 kts 60°
2026-05-05 20:04 47.46743 9.35038 20897 ft 428 kts 59°
2026-05-05 20:04 47.48298 9.38786 20910 ft 428 kts 60°
2026-05-05 20:04 47.49838 9.42553 20911 ft 428 kts 60°
2026-05-05 20:04 47.51334 9.46297 20912 ft 428 kts 61°
2026-05-05 20:05 47.52828 9.50106 21007 ft 430 kts 61°
2026-05-05 20:05 47.54320 9.53961 21515 ft 434 kts 62°
2026-05-05 20:05 47.55812 9.57841 21861 ft 433 kts 62°
2026-05-05 20:05 47.57241 9.61700 21902 ft 417 kts 66°
2026-05-05 20:06 47.58156 9.65691 21913 ft 405 kts 82°
2026-05-05 20:06 47.58422 9.69771 21911 ft 401 kts 91°
2026-05-05 20:06 47.58421 9.73908 21910 ft 401 kts 95°
2026-05-05 20:06 47.58287 9.78025 21908 ft 400 kts 97°
2026-05-05 20:07 47.58091 9.82147 21889 ft 400 kts 98°
2026-05-05 20:07 47.57879 9.86262 21902 ft 400 kts 98°
2026-05-05 20:07 47.57672 9.90376 21901 ft 401 kts 98°
2026-05-05 20:07 47.57477 9.94487 21900 ft 401 kts 98°
2026-05-05 20:08 47.57292 9.98610 21900 ft 401 kts 97°
2026-05-05 20:08 47.57114 10.02728 21894 ft 401 kts 97°
2026-05-05 20:08 47.56941 10.06794 21896 ft 401 kts 97°
2026-05-05 20:08 47.56765 10.10917 21892 ft 402 kts 97°
2026-05-05 20:09 47.56588 10.15053 21891 ft 402 kts 97°
2026-05-05 20:09 47.56410 10.19177 21888 ft 402 kts 97°
2026-05-05 20:09 47.56229 10.23308 21894 ft 402 kts 97°
2026-05-05 20:09 47.56047 10.27448 21888 ft 402 kts 97°
2026-05-05 20:10 47.55864 10.31578 21887 ft 402 kts 97°
2026-05-05 20:10 47.55686 10.35720 21890 ft 402 kts 97°
2026-05-05 20:10 47.55502 10.39790 21889 ft 402 kts 97°
2026-05-05 20:10 47.55310 10.43918 21885 ft 402 kts 98°
2026-05-05 20:11 47.55116 10.48051 21879 ft 402 kts 98°
2026-05-05 20:11 47.55050 10.52201 21866 ft 406 kts 90°
2026-05-05 20:11 47.55556 10.56337 21878 ft 412 kts 75°
2026-05-05 20:11 47.56672 10.60256 21884 ft 414 kts 65°
2026-05-05 20:12 47.58028 10.64022 21879 ft 415 kts 62°
2026-05-05 20:12 47.59500 10.67707 21878 ft 416 kts 60°
2026-05-05 20:12 47.61017 10.71352 21879 ft 416 kts 59°
2026-05-05 20:12 47.62032 10.73773 21877 ft 416 kts 59°
2026-05-05 20:13 47.63553 10.77426 21883 ft 416 kts 60°
2026-05-05 20:13 47.65057 10.81089 21874 ft 416 kts 60°
2026-05-05 20:13 47.66548 10.84761 21873 ft 415 kts 60°
2026-05-05 20:13 47.68205 10.88278 21871 ft 417 kts 50°
2026-05-05 20:14 47.70217 10.91332 21568 ft 412 kts 43°
2026-05-05 20:14 47.72367 10.94165 20768 ft 416 kts 40°
2026-05-05 20:14 47.74622 10.96910 19851 ft 422 kts 38°
2026-05-05 20:14 47.76947 10.99631 18930 ft 428 kts 38°
2026-05-05 20:15 47.79280 11.02334 18039 ft 432 kts 37°
2026-05-05 20:15 47.81643 11.05080 17274 ft 430 kts 37°
2026-05-05 20:15 47.83978 11.07817 16540 ft 426 kts 38°
2026-05-05 20:15 47.86286 11.10546 15841 ft 422 kts 38°
2026-05-05 20:16 47.88565 11.13245 15167 ft 417 kts 38°
2026-05-05 20:16 47.90825 11.15926 14514 ft 413 kts 38°
2026-05-05 20:16 47.93063 11.18586 13854 ft 409 kts 38°
2026-05-05 20:16 47.95278 11.21226 13120 ft 405 kts 38°
2026-05-05 20:17 47.97447 11.23814 12713 ft 393 kts 38°
2026-05-05 20:17 47.99549 11.26327 12431 ft 379 kts 38°
2026-05-05 20:17 48.01568 11.28743 12155 ft 365 kts 38°
2026-05-05 20:17 48.03525 11.31087 11755 ft 357 kts 38°
2026-05-05 20:18 48.05415 11.33395 11266 ft 353 kts 40°
2026-05-05 20:18 48.06973 11.36198 10799 ft 351 kts 61°
2026-05-05 20:18 48.07943 11.39519 10343 ft 348 kts 70°
2026-05-05 20:18 48.08761 11.42916 9785 ft 347 kts 71°
2026-05-05 20:19 48.09564 11.46303 9432 ft 339 kts 71°
2026-05-05 20:19 48.10340 11.49560 9199 ft 327 kts 71°
2026-05-05 20:19 48.11094 11.52706 8974 ft 316 kts 71°
2026-05-05 20:19 48.11830 11.55773 8636 ft 310 kts 71°
2026-05-05 20:20 48.12553 11.58784 8263 ft 305 kts 70°
2026-05-05 20:20 48.13263 11.61740 7959 ft 299 kts 70°
2026-05-05 20:20 48.13963 11.64655 7544 ft 297 kts 70°
2026-05-05 20:20 48.14650 11.67524 7131 ft 295 kts 70°
2026-05-05 20:21 48.15341 11.70407 6727 ft 294 kts 70°
2026-05-05 20:21 48.16031 11.73293 6332 ft 292 kts 70°
2026-05-05 20:21 48.16713 11.76145 5936 ft 289 kts 70°
2026-05-05 20:21 48.17390 11.78982 5488 ft 289 kts 69°
2026-05-05 20:22 48.18118 11.81777 5103 ft 286 kts 60°
2026-05-05 20:22 48.19225 11.84236 4998 ft 285 kts 52°
2026-05-05 20:22 48.20401 11.86643 4987 ft 285 kts 52°
2026-05-05 20:22 48.21555 11.89020 4990 ft 285 kts 52°
2026-05-05 20:23 48.22718 11.91427 4995 ft 285 kts 52°
2026-05-05 20:23 48.23878 11.93836 4990 ft 285 kts 52°
2026-05-05 20:23 48.25038 11.96253 4990 ft 285 kts 52°
2026-05-05 20:23 48.26199 11.98673 4987 ft 285 kts 52°
2026-05-05 20:24 48.27359 12.01096 4990 ft 285 kts 52°
2026-05-05 20:24 48.28516 12.03514 4984 ft 286 kts 52°
2026-05-05 20:24 48.29674 12.05939 4981 ft 285 kts 52°
2026-05-05 20:24 48.30828 12.08359 4986 ft 285 kts 52°
2026-05-05 20:25 48.31983 12.10782 4982 ft 285 kts 52°
2026-05-05 20:25 48.33131 12.13194 4985 ft 284 kts 52°
2026-05-05 20:25 48.34274 12.15597 4976 ft 276 kts 52°
2026-05-05 20:25 48.35363 12.17882 4972 ft 260 kts 51°
2026-05-05 20:26 48.36631 12.19668 4964 ft 245 kts 24°
2026-05-05 20:26 48.38243 12.20079 4974 ft 233 kts 346°
2026-05-05 20:26 48.39600 12.18978 4986 ft 224 kts 311°
2026-05-05 20:26 48.40617 12.17208 4976 ft 225 kts 311°
2026-05-05 20:27 48.41973 12.16004 4981 ft 232 kts 342°
2026-05-05 20:27 48.43597 12.16057 4986 ft 241 kts 13°
2026-05-05 20:27 48.45021 12.17398 4977 ft 248 kts 45°
2026-05-05 20:27 48.45833 12.19691 4972 ft 254 kts 76°
2026-05-05 20:28 48.45799 12.22343 4964 ft 255 kts 107°
2026-05-05 20:28 48.44919 12.24614 4967 ft 252 kts 138°
2026-05-05 20:28 48.43444 12.25915 4967 ft 244 kts 169°
2026-05-05 20:28 48.41790 12.25920 4969 ft 235 kts 200°
2026-05-05 20:29 48.40442 12.24684 4978 ft 226 kts 231°
2026-05-05 20:29 48.39750 12.22624 4983 ft 221 kts 258°
2026-05-05 20:29 48.39485 12.20338 4976 ft 222 kts 264°
2026-05-05 20:29 48.38928 12.18180 4995 ft 226 kts 235°
2026-05-05 20:30 48.37962 12.16306 4976 ft 226 kts 236°
2026-05-05 20:30 48.37123 12.14317 4976 ft 224 kts 247°
2026-05-05 20:30 48.36799 12.12091 5007 ft 221 kts 268°
2026-05-05 20:30 48.36745 12.09784 5029 ft 221 kts 266°
2026-05-05 20:31 48.36550 12.07483 5044 ft 222 kts 262°
2026-05-05 20:31 48.36342 12.05191 4853 ft 221 kts 264°
2026-05-05 20:31 48.36175 12.02896 4520 ft 217 kts 264°
2026-05-05 20:31 48.36011 12.00703 4165 ft 207 kts 264°
2026-05-05 20:32 48.35850 11.98622 3862 ft 198 kts 264°
2026-05-05 20:32 48.35695 11.96584 3606 ft 194 kts 264°
2026-05-05 20:32 48.35544 11.94578 3379 ft 192 kts 264°
2026-05-05 20:32 48.35394 11.92592 3092 ft 185 kts 264°
2026-05-05 20:33 48.35253 11.90752 2847 ft 169 kts 263°
2026-05-05 20:33 48.35122 11.89070 2637 ft 155 kts 264°
2026-05-05 20:33 48.35005 11.87521 2423 ft 143 kts 264°
2026-05-05 20:33 48.34900 11.86075 2201 ft 134 kts 263°
2026-05-05 20:34 48.34793 11.84719 2053 ft 128 kts 262°
2026-05-05 20:34 48.34690 11.83388 1898 ft 129 kts 264°
2026-05-05 20:34 48.34601 11.82031 1718 ft 133 kts 261°
2026-05-05 20:34 48.34492 11.80645 1532 ft 132 kts 263°
2026-05-05 20:35 48.34387 11.79342 1465 ft 119 kts 263°
2026-05-05 20:35 48.34322 11.78434 1467 ft 46 kts 263°
2026-05-05 20:35 48.34302 11.78164 1476 ft 24 kts 266°
2026-05-05 20:35 48.34339 11.77923 1462 ft 25 kts 293°
2026-05-05 20:36 48.34411 11.77680 1464 ft 26 kts 294°
2026-05-05 20:36 48.34463 11.77495 1466 ft 11 kts 296°
2026-05-05 20:36 48.34499 11.77429 1461 ft 0 kts 317°
2026-05-05 20:36 48.34501 11.77427 1461 ft 2 kts 322°
2026-05-05 20:37 48.34519 11.77430 1466 ft 2 kts 34°
2026-05-05 20:37 48.34521 11.77455 1463 ft 5 kts 81°
2026-05-05 20:37 48.34527 11.77539 1472 ft 14 kts 83°
2026-05-05 20:37 48.34541 11.77727 1470 ft 20 kts 84°
2026-05-05 20:38 48.34559 11.77955 1465 ft 22 kts 83°
2026-05-05 20:38 48.34564 11.78051 1463 ft 11 kts 90°
2026-05-05 20:38 48.34574 11.78192 1471 ft 16 kts 79°
2026-05-05 20:38 48.34591 11.78379 1467 ft 20 kts 83°
2026-05-05 20:39 48.34607 11.78588 1462 ft 21 kts 83°
2026-05-05 20:39 48.34624 11.78815 1463 ft 19 kts 83°
2026-05-05 20:39 48.34640 11.79021 1468 ft 21 kts 83°
2026-05-05 20:39 48.34658 11.79231 1469 ft 21 kts 82°
2026-05-05 20:40 48.34671 11.79396 1466 ft 15 kts 83°
2026-05-05 20:40 48.34679 11.79504 1473 ft 4 kts 83°
2026-05-05 20:40 48.34692 11.79546 1464 ft 3 kts 33°
2026-05-05 20:40 48.34724 11.79550 1468 ft 8 kts
2026-05-05 20:41 48.34793 11.79561 1467 ft 12 kts
2026-05-05 20:41 48.34884 11.79555 1463 ft 15 kts 352°
2026-05-05 20:41 48.34960 11.79542 1470 ft 9 kts 353°
2026-05-05 20:41 48.35035 11.79533 1467 ft 13 kts 359°
2026-05-05 20:42 48.35088 11.79618 1464 ft 13 kts 80°
2026-05-05 20:42 48.35101 11.79776 1468 ft 17 kts 84°
2026-05-05 20:42 48.35114 11.79948 1463 ft 16 kts 83°
2026-05-05 20:42 48.35127 11.80117 1462 ft 12 kts 83°
2026-05-05 20:43 48.35139 11.80198 1469 ft 4 kts 49°
2026-05-05 20:43 48.35166 11.80197 1470 ft 6 kts 352°
2026-05-05 20:43 48.35234 11.80185 1468 ft 14 kts 353°
2026-05-05 20:43 48.35339 11.80167 1472 ft 12 kts 353°
2026-05-05 20:44 48.35428 11.80141 1466 ft 15 kts 351°
2026-05-05 20:44 48.35515 11.80125 1468 ft 12 kts 354°
2026-05-05 20:44 48.35599 11.80111 1464 ft 8 kts 354°
2026-05-05 20:44 48.35661 11.80088 1468 ft 10 kts 327°
2026-05-05 20:45 48.35666 11.79964 1464 ft 0 kts 259°
2026-05-05 20:45 48.35666 11.79961 1464 ft 1 kts 260°